Miscellaneous Local Product
Issued by NWS Hastings, NE

Home | Current Version | Previous Version | Graphics & Text | Print | Product List | Glossary On
Versions: 1 2 3 4 5 6 7 8 9 10 11 12 13 14 15 16 17 18 19 20 21 22 23 24 25 26 27 28 29 30 31 32 33 34 35 36 37 38 39 40 41 42 43 44 45 46 47 48 49 50
000
AXUS43 KGID 190302
MISGRI

GID CWA HOURLY WEATHER ROUNDUP
NATIONAL WEATHER SERVICE HASTINGS NE
1000 PM CDT FRI AUG 18 2017

NOTE: "FAIR" INDICATES FEW OR NO CLOUDS BELOW 12,000 FEET WITH NO
SIGNIFICANT WEATHER AND/OR OBSTRUCTIONS TO VISIBILITY.

...SOUTH CENTRAL NEBRASKA...

CITY           SKY/WX    TMP DP  RH WIND       PRES   REMARKS
GRAND ISLAND   FAIR      74  66  76 NW3       29.99R
HASTINGS       FAIR      73  63  70 CALM      29.99R
KEARNEY        FAIR      71  66  84 S6        30.00R
ORD            FAIR      67  57  70 CALM      29.98R
YORK           FAIR      68  66  94 CALM      29.97R
AURORA         FAIR      71  67  89 NW7       29.98R
LEXINGTON      FAIR      73  62  68 N5        30.02R
HOLDREGE       FAIR      70  60  71 SW5       30.00R
HEBRON         FAIR      69  67  93 CALM      29.96R

...NEBRASKA PANHANDLE...

CITY           SKY/WX    TMP DP  RH WIND       PRES   REMARKS
CHADRON        FAIR      69  50  50 SE5       29.99R
ALLIANCE       FAIR      61  52  72 S8        30.03R
SCOTTSBLUFF    FAIR      67  53  61 E6        30.05R
SIDNEY         FAIR      70  48  45 S13       30.10R

...WESTERN AND NORTH CENTRAL NEBRASKA...

CITY           SKY/WX    TMP DP  RH WIND       PRES   REMARKS
VALENTINE      FAIR      69  54  58 E6        30.01R
AINSWORTH      FAIR      64  60  84 E5        30.02R
ONEILL         FAIR      67  61  80 NE7       30.01R
BROKEN BOW     FAIR      68  61  78 CALM      30.01R
IMPERIAL       FAIR      68  54  60 S6        30.05R
NORTH PLATTE   FAIR      67  60  78 E3        30.01R
MCCOOK         FAIR      71  59  65 S5        30.02R

...EASTERN NEBRASKA...

CITY           SKY/WX    TMP DP  RH WIND       PRES   REMARKS
NORFOLK        FAIR      69  62  78 W3        29.96R
SO SIOUX CITY  FAIR      74  62  66 NW16      29.93R
TEKAMAH        FAIR      70  67  90 NW5       29.92R
COLUMBUS       FAIR      71  64  78 NW5       29.96R
ALBION         FAIR      68  64  86 CALM      29.99R
OMAHA EPPLEY   FAIR      74  67  78 CALM      29.92R
OFFUTT AFB     FAIR      68  64  85 CALM      29.91R
MILLARD        FAIR      74  68  83 CALM      29.93R
LINCOLN        FAIR      75  67  76 S3        29.94R
NEBRASKA CITY  FAIR      72  69  89 SW6       29.93R
BEATRICE       FAIR      71  66  84 CALM      29.94R
FALLS CITY     FAIR      76  66  71 S5        29.92R

...NORTHERN KANSAS...

CITY           SKY/WX    TMP DP  RH WIND       PRES   REMARKS
GOODLAND       FAIR      65  57  75 SE9       30.09R
HILL CITY      FAIR      68  62  81 CALM      30.02R
NORTON         CLEAR     68  59  73 SW3       30.01R
PHILLIPSBURG   CLEAR     70  61  73 CALM      29.99R
SMITH CENTER   MOCLDY    68  63  83 SE5       29.99R
HAYS           FAIR      72  62  71 NE9       29.99R
RUSSELL        FAIR      75  63  66 NE7       29.97R
CONCORDIA      FAIR      74  67  78 W3        29.96R
SALINA         FAIR      84  68  58 E6        29.95R
TOPEKA         FAIR      76  70  82 CALM      29.92R



USA.gov is the U.S. government's official web portal to all federal, state and local government web resources and services.